Location: Wellington
(41.3000°S, 174.7830°E)
Time: 03:32:55
(UTC+13:00)

Resurs 1-3 - Pass Details

Date: 24 January 2019
Orbit: 631 x 632 km, 98.0° (Epoch: 17 February)

Event Time Altitude Azimuth Distance (km) Brightness Sun altitude
Rises 21:48:52 0° 160° (SSE) 2,966 7.3 -10.3°
Reaches altitude 10° 21:51:13 10° 152° (SSE) 2,049 6.4 -10.7°
Maximum altitude 21:55:26 41° 82° (E) 938 4.1 -11.3°
Drops below altitude 10° 21:59:36 10° 11° (N) 2,020 5.7 -11.9°
Enters shadow 21:59:42 - 11° (N) 2,064 5.8 -11.9°
